Jogging Pour Tous
Remonter

23ème Edition des Boucles Du Djale

Samedi 15 mars 2008

Course A - 1,8 km

Course B - 3,6 km

Course C - 12,6 km

Course A - 1,8 km
Position Dossard Nom Prénom Temps Moyenne horaire Temps au km
1 974 DEFLANDRE CLEMENT 00:06:38 16281 00:03:41
2 363 POHL CLARISSE 00:06:46 15961 00:03:46
3 206 LESUISSE MARTIN 00:07:08 15140 00:03:58
4 43 VAN DER HEYDEN WENDY 00:07:10 15070 00:03:59
5 1428 OUBOUSKOUR FATIMA 00:07:26 14529 00:04:08
6 383 MAIER GEROME 00:07:35 14242 00:04:13
7 170 LESUISSE BENJAMIN 00:07:38 14148 00:04:14
8 877 DEMONTY LOIC 00:07:40 14087 00:04:16
9 1424 WAUTHIER ANDREA 00:07:42 14026 00:04:17
10 61 D HOEY BRANDON 00:07:43 13996 00:04:17
11 1378 DOHOGNE JOACHIM 00:07:45 13935 00:04:18
12 714 CHARLIER ELINE 00:07:46 13906 00:04:19
13 1416 FADLI SAMI 00:07:48 13846 00:04:20
14 62 D HOEY CHRISTOPHER 00:07:51 13758 00:04:22
15 1429 OUBOUSKOUR OUMAIMA 00:07:53 13700 00:04:23
16 1423 MAES MARINE 00:07:54 13671 00:04:23
17 1425 WAUTHIER LUCAS 00:07:57 13585 00:04:25
18 1396 LOGNOUL EMILIE 00:08:03 13416 00:04:28
19 60 CHABABE ELYNA 00:08:04 13388 00:04:29
20 370 LARUE THIBAUT 00:08:07 13306 00:04:31
21 1373 SION SHELLY 00:08:10 13224 00:04:32
22 140 OGER ALINE 00:08:12 13171 00:04:33
23 1397 BRONE GREGORY 00:08:28 12756 00:04:42
24 1417 VERPOORTEN THOMAS 00:08:31 12681 00:04:44
25 1395 BAUMANS LAURIE 00:08:33 12632 00:04:45
26 1430 OUBOUSKOUR SAMIRA 00:08:37 12534 00:04:47
27 146 LEMMENS MANON 00:08:38 12510 00:04:48
28 726 CENNE ODILE 00:08:49 12250 00:04:54
29 482 SPELGATTI ANDREA 00:08:59 12022 00:04:59
30 144 MOHON OPHELIE 00:09:12 11739 00:05:07
31 368 LARUE KELLY 00:09:19 11592 00:05:11
32 48 DEWART QUENTIN 00:09:23 11510 00:05:13
33 489 FRISSCHEM GILLES 00:09:28 11408 00:05:16
34 31 D HOEY MADISON 00:09:38 11211 00:05:21
35 1391 JOCKIN NICOLAS 00:10:01 10782 00:05:34
36 488 FRISSCHEM LIAM 00:10:12 10588 00:05:40
37 1427 SUBASIC NINA 00:10:30 10286 00:05:50
38 803 LEGROS AXEL 00:10:32 10253 00:05:51
39 384 MAIER MARIE 00:10:33 10237 00:05:52
40 40 CHABABE ELAIS 00:10:36 10189 00:05:53
41 1372 PARIS LUCAS 00:10:40 10125 00:05:56
42 1070 LEMMENS LISE 00:10:42 10093 00:05:57
43 176 LEGROS JUSTINE 00:10:46 10031 00:05:59
44 1418 HAZKIN GABRIELLE 00:11:06 9730 00:06:10
45 1410 WIJNEN EMELINE 00:11:08 9701 00:06:11
46 858 HILDERSON LIZA 00:11:40 9257 00:06:29
47 1380 CHARLIER LOUIS 00:11:47 9165 00:06:33
48 1412 WIJNEN THOMAS 00:11:50 9127 00:06:34
49 1371 TEZEL EDIS 00:12:02 8975 00:06:41
50 976 VAN DER HEYDEN AUBRY 00:12:07 8913 00:06:44
51 801 LEGROS NOEMIE 00:12:09 8889 00:06:45
52 1115 DEVRIESE LAURA 00:13:04 8265 00:07:16
53 1393 MANDUCA ALEXIA 00:13:15 8151 00:07:22

 

Course B - 3,6 km
Position Dossard Nom Prénom Temps Moyenne horaire Temps au km
1 831 VANDER PLANCKE ERWIN 00:12:55 16723 00:03:35
2 97 NEYCKEN RAPHAEL 00:13:06 16489 00:03:38
3 2 DELVENNE THIBAULT 00:14:31 14879 00:04:02
4 137 DATTOLI ANTOINE 00:14:47 14611 00:04:06
5 1050 PLOM CORENTIN 00:14:50 14562 00:04:07
6 1426 LEBRUN ROBIN 00:14:58 14432 00:04:09
7 1400 TANTIMONACO ANTOINE 00:15:02 14368 00:04:11
8 1435 COLSON PIERRE 00:15:05 14320 00:04:11
9 420 FIDANZA MARINE 00:15:06 14305 00:04:12
10 1399 ADAM ADELINE 00:15:14 14179 00:04:14
11 1379 JOCKIN FRANCOIS 00:15:26 13996 00:04:17
12 139 OGER VINCENT 00:15:28 13966 00:04:18
13 205 MARCOTTE ARNAUD 00:15:30 13935 00:04:18
14 1419 JEHAES FLORENCE 00:15:32 13906 00:04:19
15 498 HOCK ALLISON 00:15:36 13846 00:04:20
16 1432 LAMBERT SEBASTIEN 00:15:38 13817 00:04:21
17 812 JAMINON NICOLAS 00:15:58 13528 00:04:26
18 1428 OUBOUSKOUR FATIMA 00:16:09 13375 00:04:29
19 830 RAETS MAUDE 00:16:20 13224 00:04:32
20 398 POHL ESTELLE 00:16:23 13184 00:04:33
21 493 BAIVIER HUGO 00:17:48 12135 00:04:57
22 204 MARCOTTE CORALIE 00:18:02 11978 00:05:01
23 494 BAIVIER JEAN 00:18:22 11760 00:05:06
24 1375 DERICHS PATRICIA 00:24:04 8975 00:06:41
25 1422 LAFONTAINE CHRISTINE 00:24:05 8969 00:06:41
26 1377 SIMONS DORINNE 00:24:08 8950 00:06:42
27 1436 UME DANIELLE 00:25:26 8493 00:07:04
28 102 RACOUX DANIELE 00:29:42 7273 00:08:15

 

 

 

Course C - 12,6 km
Position Dossard Nom Prénom Temps Moyenne horaire Temps au km
1 1531 THEUNIS GERT 00:42:25 17823 00:03:22
2 11 PHILIPPE PATRICK 00:43:07 17534 00:03:25
3 947 DE NAEYER JOACHIM 00:43:25 17413 00:03:27
4 269 COLSON STEPHANE 00:44:31 16982 00:03:32
5 7 PETRY CEDRIC 00:44:34 16963 00:03:32
6 16 ZIELINSKI MICHEL 00:44:55 16831 00:03:34
7 339 VANDENBLINK ERIC 00:45:09 16744 00:03:35
8 329 DUSART VINCENT 00:45:14 16713 00:03:35
9 1452 STULENS BRUNO 00:45:26 16640 00:03:36
10 29 CLOSE PIERRE 00:45:30 16615 00:03:37
11 1457 VAESEN BENOIT 00:46:08 16387 00:03:40
12 66 PAQUES THIERRY 00:46:24 16293 00:03:41
13 1481 DETRIXHE MICHAEL 00:46:33 16241 00:03:42
14 918 DAEL FABRICE 00:46:53 16125 00:03:43
15 158 BAUMANS J LUC 00:46:56 16108 00:03:43
16 571 BELLEFLAMME MARC 00:47:16 15994 00:03:45
17 268 BAERTS ERIC 00:47:17 15989 00:03:45
18 298 CARLIER OLIVIER 00:47:19 15977 00:03:45
19 9 BOLLEN PASCAL 00:47:21 15966 00:03:45
20 333 DEMIRCI KENAN 00:47:22 15961 00:03:46
21 278 RASIER PATRICK 00:47:25 15944 00:03:46
22 266 BALTS DIDIER 00:47:27 15933 00:03:46
23 32 GODENIR FABRICE 00:47:44 15838 00:03:47
24 141 LEPOINT FRANCOIS 00:48:01 15745 00:03:49
25 67 LOGNOUL FABIEN 00:48:03 15734 00:03:49
26 515 CABOREGUERA FRANCISCO 00:48:23 15625 00:03:50
27 65 BAILLY LUC 00:48:28 15598 00:03:51
28 468 SCHROEDERS JOZEF 00:48:32 15577 00:03:51
29 271 ARENA CUESEPPE 00:48:45 15508 00:03:52
30 188 SELERIN PASCAL 00:48:48 15492 00:03:52
31 1249 BLEROT DIDIER 00:48:52 15471 00:03:53
32 505 VENTURELLI DOMINIQUE 00:49:03 15413 00:03:54
33 1472 RABENDZKI ROMAN 00:49:22 15314 00:03:55
34 1474 FREMALLE BENOIT 00:49:24 15304 00:03:55
35 1433 ORTEGA JUANB 00:49:25 15298 00:03:55
36 290 LENAERS CHARLES 00:49:46 15191 00:03:57
37 1475 LEDENT PHILIPPE 00:50:03 15105 00:03:58
38 13 PANARIELLO FABIAN 00:50:04 15100 00:03:58
39 1454 CLAESEN KURT 00:50:07 15085 00:03:59
40 69 JULIN PASCAL 00:50:27 14985 00:04:00
41 1404 LIEVENS FREDERIC 00:50:34 14951 00:04:01
42 1394 BAUMANS HUGHES 00:50:37 14936 00:04:01
43 155 BOSMANS ERIC 00:50:38 14931 00:04:01
44 202 BETHUME BERNARD 00:50:40 14921 00:04:01
45 511 BALSAN LUC 00:50:47 14887 00:04:02
46 93 FAUVILLE XAVIER 00:50:53 14858 00:04:02
47 1483 PIRSON STEPHANE 00:50:58 14833 00:04:03
48 203 PAWELKOWSKI DAVID 00:51:07 14790 00:04:03
49 631 JASPARD MATHIEU 00:51:24 14708 00:04:05
50 1459 COMPERE BRICE 00:51:26 14699 00:04:05
51 428 COUQUELET LAURENCE 00:51:29 14684 00:04:05
52 275 DARTOIS FABRICE 00:51:34 14661 00:04:06
53 297 MASSOT JEAN-PIERRE 00:51:40 14632 00:04:06
54 247 MANCINI MICHEL 00:52:11 14487 00:04:08
55 475 THIESSENS GUARD 00:52:14 14474 00:04:09
56 620 HERZET CLAUDE 00:52:18 14455 00:04:09
57 657 VANEMELEN GILLES 00:52:31 14395 00:04:10
58 1021 BODSON JOS 00:52:35 14377 00:04:10
59 129 BIELEN MICHEL 00:52:38 14364 00:04:11
60 1499 BRENNENRAEDTS GEOFFREY 00:52:40 14354 00:04:11
61 5 MATHOT RICHARD 00:52:46 14327 00:04:11
62 191 WERGIFOSSE JACKY 00:52:50 14309 00:04:12
63 34 D HOEY GEORGES 00:52:53 14296 00:04:12
64 46 FIFI BERNARD 00:52:58 14273 00:04:12
65 131 LUX M LAURE 00:53:00 14264 00:04:12
66 1259 TROIANO MICHAEL 00:53:04 14246 00:04:13
67 463 LEDOUX LUC 00:53:24 14157 00:04:14
68 506 BATTAIS JOHAN 00:53:32 14122 00:04:15
69 143 BRIAN MICHEL 00:53:35 14109 00:04:15
70 194 LAVIGNE FABIAN 00:53:39 14091 00:04:15
71 303 ROUFOSS JOEFFREY 00:53:53 14030 00:04:17
72 1453 JOSSE BENOIT 00:53:56 14017 00:04:17
73 1450 LEKEU FRANCOIS 00:53:58 14009 00:04:17
74 1012 VANHULST BENOIT 00:54:00 14000 00:04:17
75 756 LEKEU GILBERT 00:54:02 13991 00:04:17
76 442 COUPLET PIERRE 00:54:06 13974 00:04:18
77 304 LOPEZ CELSO 00:54:09 13961 00:04:18
78 594 BODSON VINCENT 00:54:14 13940 00:04:18
79 119 THIRION ALAIN 00:54:17 13927 00:04:18
80 1003 DESSARD J LUC 00:54:19 13918 00:04:19
81 467 STEVENS JEAN 00:54:22 13906 00:04:19
82 1408 VAN BRACKEL J MARC 00:54:32 13863 00:04:20
83 124 SERVAIS DAVID 00:54:35 13850 00:04:20
84 1462 DELL AQUILA VITO 00:54:37 13842 00:04:20
85 1479 ESSABRI ALI 00:54:47 13800 00:04:21
86 1334 COLLINS JULIEN 00:54:50 13787 00:04:21
87 465 IMMERIX JEAN-PIERRE 00:54:55 13766 00:04:22
88 126 COUNE BENOIT 00:55:04 13729 00:04:22
89 1477 DEJARDIN FREDERIC 00:55:10 13704 00:04:23
90 1466 WOLFF BERTHOLD 00:55:16 13679 00:04:23
91 441 COLLIN CHRISTIAN 00:55:19 13667 00:04:23
92 355 STICCA NICOLO 00:55:22 13654 00:04:24
93 924 GADEA RAMON 00:55:33 13609 00:04:25
94 650 HAMES LAURENT 00:55:36 13597 00:04:25
95 280 JOSSE AXEL 00:55:38 13589 00:04:25
96 1212 FREDERICH DOMINIQUE 00:55:40 13581 00:04:25
97 28 BOUR J PAUL 00:55:49 13544 00:04:26
98 1431 DATTOLI MATTEO 00:55:52 13532 00:04:26
99 1493 CLAES RICHARD 00:55:59 13504 00:04:27
100 1142 COLLYN HANS 00:56:17 13432 00:04:28
101 1458 WIJNEN J PIERRE 00:56:20 13420 00:04:28
102 1201 CERFONTAINE MICHAEL 00:56:22 13412 00:04:28
103 283 DETRAUX ROLAND 00:56:24 13404 00:04:29
104 1018 BAUDIER EDWYN 00:56:27 13392 00:04:29
105 192 KINDERMANS THIBAUT 00:56:35 13361 00:04:29
106 466 HERTOGEN WILLY 00:56:44 13325 00:04:30
107 198 ROELANDT PHILIPPE 00:56:58 13271 00:04:31
108 1398 OUBOUSKOUR BRAHIM 00:56:59 13267 00:04:31
109 1332 GANTOIS GERALD 00:57:04 13248 00:04:32
110 1494 BELLERY NICOLAS 00:57:10 13224 00:04:32
111 15 VANKERKHOVEN MARTIN 00:57:14 13209 00:04:33
112 676 CORTIS MICKAEL 00:57:17 13198 00:04:33
113 445 RECHT JOSE 00:57:19 13190 00:04:33
114 1407 GUARINO TONY 00:57:21 13182 00:04:33
115 1374 GUCKEL IRWIN 00:57:23 13175 00:04:33
116 543 CULOT J YVES 00:57:27 13159 00:04:34
117 1504 GAILLARD J PIERRE 00:57:30 13148 00:04:34
118 560 DUFOUR RENE 00:57:31 13144 00:04:34
119 195 VENTURELLI MAXIME 00:57:33 13136 00:04:34
120 927 BONHOMME FREDDY 00:57:37 13121 00:04:34
121 328 DION ROGER 00:57:40 13110 00:04:35
122 1403 MILAN DANIEL 00:57:44 13095 00:04:35
123 52 DACOS PATRICK 00:57:46 13087 00:04:35
124 125 RENARD VIVIANE 00:57:50 13072 00:04:35
125 274 RIHON PAUL 00:57:54 13057 00:04:36
126 285 WILDERIANE PIERRE 00:57:58 13042 00:04:36
127 227 SIMON BRUNO 00:58:00 13034 00:04:36
128 1164 SCHRODER RAPHAEL 00:58:17 12971 00:04:38
129 601 BAIVIER ALEXANDRE 00:58:23 12949 00:04:38
130 1248 JOST ALAIN 00:58:24 12945 00:04:38
131 311 DEROECK PATRICK 00:58:25 12942 00:04:38
132 257 HEINEN HENRI 00:58:33 12912 00:04:39
133 1409 GREGOIRE THIERRY 00:58:45 12868 00:04:40
134 164 DEWART HENRI 00:58:47 12861 00:04:40
135 912 DRESSEN LAURENCE 00:58:51 12846 00:04:40
136 705 DARDENNE PIERRE-YVES 00:59:08 12785 00:04:42
137 737 BADENBEY BENOIT 00:59:15 12759 00:04:42
138 1199 MORENO MANUEL 00:59:22 12734 00:04:43
139 999 BOLSEE J CHRISTOPHE 00:59:24 12727 00:04:43
140 1485 BODSON CEDRIC 00:59:25 12724 00:04:43
141 263 HILDERSON LUC 00:59:27 12717 00:04:43
142 1434 COLSON MARC 00:59:30 12706 00:04:43
143 1507 LENELLE BERNARD 00:59:32 12699 00:04:43
144 1506 LENELLE JEROME 00:59:34 12692 00:04:44
145 211 FOUARGE JOSEPH 00:59:40 12670 00:04:44
146 250 LESSAIN ERIC 00:59:41 12667 00:04:44
147 717 COLLETTE GREGORY 00:59:51 12632 00:04:45
148 1392 MUYTERS SERGE 01:00:03 12590 00:04:46
149 1032 VISE ROMAIN 01:00:13 12555 00:04:47
150 658 THEUNISSEN ALAIN 01:00:18 12537 00:04:47
151 130 SCHOONBROODT LEON 01:00:20 12530 00:04:47
152 720 BAUDIER RENE 01:00:43 12451 00:04:49
153 1251 BATTISTINI LUCIANO 01:00:46 12441 00:04:49
154 327 WILLEM BERNARD 01:00:51 12424 00:04:50
155 351 PIERRE FREDERIC 01:00:53 12417 00:04:50
156 1456 GEURTEN ROBERT 01:01:00 12393 00:04:50
157 1455 ROSSIGNOL BERNARD 01:01:01 12390 00:04:51
158 1496 ZANELLA GRAZIANO 01:01:03 12383 00:04:51
159 1401 GUCKEL BRUNO 01:01:05 12377 00:04:51
160 1256 NOUILLE CHRISTINA 01:01:08 12366 00:04:51
161 1451 PACE CARLO 01:01:10 12360 00:04:51
162 1367 SAMURAI KARELLE 01:01:21 12323 00:04:52
163 1321 PIRLET SIMON 01:01:28 12299 00:04:53
164 1510 JOASSART J BAPTISTE 01:01:30 12293 00:04:53
165 133 MENNICKEN ROGER 01:01:31 12289 00:04:53
166 430 COURARD FABIAN 01:01:38 12266 00:04:53
167 240 GOESSENS CLAUDINE 01:01:47 12236 00:04:54
168 256 ARCHAMBEAU ROGER 01:01:50 12226 00:04:54
169 354 WATRIN BRUNO 01:01:56 12207 00:04:55
170 1447 DEBRY JEAN-YVES 01:01:58 12200 00:04:55
171 292 KRETTELS GUY 01:02:12 12154 00:04:56
172 246 FRANKINET ALBERT 01:02:22 12122 00:04:57
173 132 FRYNS GILBERT 01:02:28 12102 00:04:57
174 538 WAGELMANS CLARISSE 01:02:36 12077 00:04:58
175 237 CUYPERS J PIERRE 01:02:38 12070 00:04:58
176 1420 JONLET CHRISTIAN 01:02:40 12064 00:04:58
177 1478 ESSABRI JEROME 01:02:44 12051 00:04:59
178 101 JUST ERIC 01:02:51 12029 00:04:59
179 728 JASPES PIETER 01:02:57 12010 00:05:00
180 525 PERSIA MICHEL 01:02:59 12003 00:05:00
181 107 ROBERTI HENRI 01:03:04 11987 00:05:00
182 1487 UNKEL ALAIN 01:03:16 11949 00:05:01
183 529 BANNEUX DAVID 01:03:20 11937 00:05:02
184 45 VERHELLE VERONIQUE 01:03:36 11887 00:05:03
185 47 JULIN HUBERT 01:03:37 11884 00:05:03
186 1505 DELINCE JACKY 01:03:43 11865 00:05:03
187 1508 KELLENS MICHEL 01:03:45 11859 00:05:04
188 1376 HOUNJE FREDDY 01:03:46 11856 00:05:04
189 547 VAN DER HEYDEN ERIC 01:03:48 11850 00:05:04
190 213 PIRARD XAVIER 01:03:54 11831 00:05:04
191 1536 CHRIST JEAN 01:04:02 11806 00:05:05
192 334 KARAGIANNAKIS LAMBROS 01:04:06 11794 00:05:05
193 1346 BRAGARD GREGORY 01:04:09 11785 00:05:05
194 1500 BULTOT SEBASTIEN 01:04:13 11773 00:05:06
195 993 CULOT ALEXIS 01:04:19 11754 00:05:06
196 1406 HULSMANS PIERRE 01:04:23 11742 00:05:07
197 1440 AERTS JEAN 01:04:27 11730 00:05:07
198 1250 LENNERTS DELPHINE 01:04:33 11712 00:05:07
199 1405 BOLLAND MARC 01:04:35 11706 00:05:08
200 526 PERSIA STEPHANIE 01:04:39 11694 00:05:08
201 79 BOLOGNE J PHILIPPE 01:04:40 11691 00:05:08
202 1537 JANSSEN MAURICE 01:04:55 11646 00:05:09
203 148 HOGENBOOM CATHERINE 01:04:57 11640 00:05:09
204 438 DELHEZ GEORGES 01:05:08 11607 00:05:10
205 122 OGER PHILIPPE 01:05:40 11513 00:05:13
206 762 LAHAYE FLORENT 01:05:47 11492 00:05:13
207 929 PLOEMMEN PATRICK 01:05:51 11481 00:05:14
208 1402 WERTZ BERNARD 01:06:05 11440 00:05:15
209 252 MAKINAY PHILIPPE 01:06:21 11394 00:05:16
210 1036 LE THANH TINH 01:06:24 11386 00:05:16
211 1497 FISETTE PASCAL 01:06:27 11377 00:05:16
212 433 RIGA RENE 01:06:35 11354 00:05:17
213 160 BOLOGNE GUY 01:06:48 11317 00:05:18
214 920 MEYER FERDI 01:06:52 11306 00:05:18
215 721 ARNOLD PASCAL 01:07:14 11244 00:05:20
216 1471 COLIN THIERRY 01:07:16 11239 00:05:20
217 954 HELSMOORTEL PATRICK 01:07:35 11186 00:05:22
218 1476 STASSEN FRANCOIS 01:07:38 11178 00:05:22
219 998 DELAIRESSE GILBERT 01:07:45 11159 00:05:23
220 1535 FLAGOTHIER PIERRE 01:07:49 11148 00:05:23
221 914 FARBER FREDERIC 01:07:50 11145 00:05:23
222 1209 AERTS HENRY 01:07:53 11137 00:05:23
223 345 PISCART FRANCOIS 01:08:22 11058 00:05:26
224 1486 BASTAGNE JACQUES 01:08:23 11055 00:05:26
225 1009 KELLENS PATRICK 01:08:31 11034 00:05:26
226 1492 DRIESSENS FREDERIC 01:08:43 11002 00:05:27
227 616 HONIG WIEL 01:09:06 10941 00:05:29
228 1439 KAYISDIKEN FEVZI 01:09:29 10880 00:05:31
229 1438 BAR MICHEL 01:09:31 10875 00:05:31
230 219 MECZKOWSKI STAN 01:09:45 10839 00:05:32
231 1501 RUZZIOCONI MARCO 01:09:48 10831 00:05:32
232 56 LUCAS PIERRE 01:09:52 10821 00:05:33
233 1498 PAWELKOWSKI CAROLE 01:09:58 10805 00:05:33
234 1470 PARISI DOMINIQUE 01:10:06 10785 00:05:34
235 255 GENTILE DOMENICO 01:10:08 10779 00:05:34
236 559 BUSSCHOTS FREDERIC 01:10:30 10723 00:05:36
237 1538 ANDRE ESTELLE 01:10:38 10703 00:05:36
238 1149 RADOSEVIC GREGORY 01:10:48 10678 00:05:37
239 1495 ANDRE CARLOS 01:11:03 10640 00:05:38
240 1489 VINCENT EMMANUEL 01:11:09 10625 00:05:39
241 1473 RENSON J YVES 01:11:10 10623 00:05:39
242 100 MELARD MICHEL 01:11:37 10556 00:05:41
243 114 VAN DE VELDE JOZEF 01:11:48 10529 00:05:42
244 59 ULRICI JACKY 01:11:55 10512 00:05:42
245 1480 COLSON MICHELE 01:11:58 10505 00:05:43
246 77 PAROTTE SIMONE 01:12:04 10490 00:05:43
247 587 PESSER ALAIN 01:12:21 10449 00:05:45
248 1503 VANNI CARLO 01:12:24 10442 00:05:45
249 33 D HOEY CHRISTIAN 01:12:26 10437 00:05:45
250 1464 AGUIAR CRISTOBAL 01:12:31 10425 00:05:45
251 1463 KELLENS MARCEL 01:12:32 10423 00:05:45
252 1421 RADERMAKER MARTINE 01:12:38 10408 00:05:46
253 761 DEMOITIE SOPHIE 01:12:49 10382 00:05:47
254 78 BABE MICHEL 01:13:03 10349 00:05:48
255 1437 DUSHESNE JEAN-CLAUDE 01:13:06 10342 00:05:48
256 1037 LE THANH TAM 01:13:21 10307 00:05:49
257 637 LARMINIER ANNE-MARIE 01:13:26 10295 00:05:50
258 306 HUMBLET JEAN-MARIE 01:13:39 10265 00:05:51
259 614 BRENNENRAEDTS FREDERIC 01:13:44 10253 00:05:51
260 265 DEGEE JEAN-LUC 01:13:55 10228 00:05:52
261 1064 MAES MARC 01:14:42 10120 00:05:56
262 185 VANHERCK JEAN 01:14:45 10114 00:05:56
263 986 JASPER JOZEE 01:14:50 10102 00:05:56
264 1484 MATTHYS SEVERINE 01:14:52 10098 00:05:57
265 1490 DEFIZE ALICE 01:14:59 10082 00:05:57
266 1467 BAKHTAR MOSTAFA 01:15:38 9996 00:06:00
267 39 BALTHASAR FRANCIS 01:16:11 9923 00:06:03
268 569 SPADARO FILIPPO 01:17:30 9755 00:06:09
269 42 WILLAMME M FRANCE 01:17:34 9746 00:06:09
270 689 FRANCIS JOEL 01:17:36 9742 00:06:10
271 85 LERUSE MARTINE 01:17:39 9736 00:06:10
272 1534 RUTILO ROSETTA 01:17:45 9723 00:06:10
273 1533 MAMMOLI MARIELLA 01:17:47 9719 00:06:10
274 524 DELAVIGNETTE JEAN-POL 01:17:51 9711 00:06:11
275 1468 BAKHTAR NADIR 01:19:22 9525 00:06:18
276 117 MOHON M ANGE 01:19:47 9476 00:06:20
277 953 LENAERTS VERONIQUE 01:20:13 9424 00:06:22
278 272 SCHMITS WILHEM 01:20:28 9395 00:06:23
279 578 RAMQUET J FRANCOIS 01:20:44 9364 00:06:24
280 1491 CASTIGLIONE VALERIO 01:21:44 9250 00:06:29
281 686 BODEUS GODEFROID 01:21:46 9246 00:06:29
282 1488 ROSKAM BEA 01:21:49 9240 00:06:30
283 1461 PLISSON MURIEL 01:22:33 9158 00:06:33
284 241 DEHAIRS ANDRE 01:22:36 9153 00:06:33
285 229 COLLET GEORGES 01:24:17 8970 00:06:41
286 1532 IOVINE DANIELLE 01:26:09 8775 00:06:50
287 735 HADJIDIMITRIA STELIO 01:26:10 8774 00:06:50
288 1460 THYS RIA 01:26:19 8758 00:06:51
289 1469 AKGOZ HATICE 01:26:20 8757 00:06:51
290 496 ROBERT CATHERINE 01:35:10 7944 00:07:33
291 1509 MOTTARD GUY 01:46:09 7122 00:08:25